Sauk Centre, MN

11:28 PM CST on December 09, 2019 (GMT -0600)
Sauk Centre

Weather History for KD39 - September, 2019

Change the Weather History Date:

Sunday, September 8, 2019

  Actual Average (KGHW) Record (KGHW)
Temperature  
Mean Temperature 54 °F -  
Max Temperature 59 °F 75 °F 93 °F (1959)
Min Temperature 50 °F 49 °F 33 °F (1992)
Degree Days  
Heating Degree Days 10    
Growing Degree Days 4 (Base 50)    
Moisture  
Dew Point 50 °F    
Average Humidity 87    
Maximum Humidity 95    
Minimum Humidity 74    
Precipitation  
Precipitation 0.09 in - - ()
Sea Level Pressure  
Sea Level Pressure 30.13 in    
Wind  
Wind Speed 7 mph ()    
Max Wind Speed 12 mph    
Max Gust Speed -    
Visibility 10.0 miles    
Events Rain    
Averages and records for this station are not official NWS values.
T = Trace of Precipitation, MM = Missing Value Source: Averaged Metar Reports

Daily Weather History Graph

Daily Weather History Graph

Search for Another Location

Airport or City:

Astronomy

Sep. 08, 2019 Rise Set
Actual Time 6:49 AM CDT 7:44 PM CDT
Civil Twilight 6:18 AM CDT 8:14 PM CDT
Nautical Twilight 5:42 AM CDT 8:50 PM CDT
Astronomical Twilight 5:04 AM CDT 9:28 PM CDT
Moon 5:09 PM CDT (9/8) 1:14 AM CDT (9/8)
Length of Visible Light 13h 56m
Length of Day
12h 55m
Waxing Gibbous, 75% of the Moon is Illuminated
Sep 8
Waxing Gibbous
Sep 13
Full
Sep 21
Last Quarter
Sep 28
New
Oct 5
First Quarter

Hourly Weather History & Observations

Time (CDT) Temp. Dew Point Humidity Pressure Visibility Wind Dir Wind Speed Gust Speed Precip Events Conditions
12:15 AM 51.4 °F 49.5 °F 93% 30.13 in 10.0 mi NE 4.6 mph - N/A   Light Drizzle
12:38 AM 51.4 °F 49.6 °F 94% 30.13 in 10.0 mi NE 4.6 mph - N/A   Overcast
12:57 AM 51.3 °F 49.3 °F 93% 30.13 in 10.0 mi NE 4.6 mph - 0.02 in Rain Rain
1:16 AM 51.3 °F 49.6 °F 94% 30.12 in 10.0 mi NE 6.9 mph - 0.03 in Rain Rain
1:35 AM 50.9 °F 49.3 °F 94% 30.12 in 10.0 mi ENE 9.2 mph - 0.07 in Rain Light Rain
1:36 AM 50.9 °F 49.3 °F 94% 30.12 in 10.0 mi ENE 9.2 mph - 0.07 in Rain Light Rain
1:55 AM 50.9 °F 49.1 °F 94% 30.12 in 10.0 mi ENE 9.2 mph - 0.07 in   Light Drizzle
1:56 AM 50.9 °F 49.1 °F 94% 30.13 in 10.0 mi ENE 8.1 mph - 0.07 in   Light Drizzle
2:15 AM 50.9 °F 49.1 °F 94% 30.13 in 10.0 mi ENE 6.9 mph - N/A   Overcast
2:19 AM 50.9 °F 49.1 °F 94% 30.13 in 10.0 mi ENE 6.9 mph - N/A   Overcast
2:35 AM 50.7 °F 49.1 °F 94% 30.13 in 10.0 mi East 8.1 mph - N/A   Overcast
2:40 AM 50.5 °F 49.1 °F 95% 30.13 in 10.0 mi East 9.2 mph - N/A   Overcast
2:57 AM 50.5 °F 49.1 °F 95% 30.13 in 10.0 mi East 9.2 mph - N/A   Overcast
3:15 AM 50.5 °F 49.1 °F 95% 30.12 in 10.0 mi East 9.2 mph - N/A   Overcast
3:35 AM 50.5 °F 49.1 °F 95% 30.13 in 10.0 mi East 9.2 mph - N/A Rain Light Rain
3:36 AM 50.7 °F 49.1 °F 94% 30.13 in 10.0 mi East 8.1 mph - N/A Rain Light Rain
3:55 AM 50.5 °F 49.1 °F 95% 30.12 in 10.0 mi ENE 6.9 mph - N/A   Overcast
3:56 AM 50.5 °F 49.1 °F 95% 30.12 in 10.0 mi ENE 8.1 mph - N/A   Overcast
4:18 AM 50.4 °F 49.1 °F 95% 30.12 in 10.0 mi East 6.9 mph - N/A   Overcast
4:35 AM 50.4 °F 48.7 °F 94% 30.11 in 10.0 mi ENE 8.1 mph - N/A   Overcast
4:55 AM 50.4 °F 48.6 °F 94% 30.11 in 10.0 mi East 9.2 mph - N/A   Overcast
4:56 AM 50.4 °F 48.6 °F 94% 30.11 in 10.0 mi East 9.2 mph - N/A   Overcast
5:15 AM 50.4 °F 48.6 °F 94% 30.12 in 10.0 mi East 6.9 mph - N/A   Overcast
5:16 AM 50.4 °F 48.6 °F 94% 30.12 in 10.0 mi East 5.8 mph - N/A   Overcast
5:39 AM 50.4 °F 48.4 °F 93% 30.12 in 10.0 mi East 5.8 mph - N/A   Overcast
5:56 AM 50.4 °F 48.4 °F 93% 30.12 in 10.0 mi East 4.6 mph - N/A   Overcast
6:15 AM 50.2 °F 48.2 °F 93% 30.12 in 10.0 mi ENE 5.8 mph - N/A   Overcast
6:16 AM 50.2 °F 48.2 °F 93% 30.12 in 10.0 mi ENE 5.8 mph - N/A   Overcast
6:35 AM 50.2 °F 48.2 °F 93% 30.13 in 10.0 mi East 6.9 mph - N/A Rain Light Rain
6:36 AM 50.2 °F 48.2 °F 93% 30.13 in 10.0 mi East 6.9 mph - N/A Rain Light Rain
6:55 AM 50.0 °F 48.2 °F 94% 30.13 in 10.0 mi ENE 9.2 mph - N/A   Light Drizzle
6:59 AM 50.0 °F 48.2 °F 94% 30.13 in 10.0 mi ENE 6.9 mph - N/A   Light Drizzle
7:17 AM 50.0 °F 48.0 °F 93% 30.14 in 10.0 mi East 5.8 mph - N/A   Overcast
7:36 AM 50.0 °F 48.0 °F 93% 30.14 in 10.0 mi ENE 6.9 mph - N/A   Overcast
7:55 AM 50.0 °F 48.2 °F 94% 30.14 in 10.0 mi ENE 8.1 mph - N/A   Overcast
8:15 AM 50.0 °F 47.8 °F 92% 30.15 in 10.0 mi East 6.9 mph - N/A   Overcast
8:19 AM 50.0 °F 47.8 °F 92% 30.15 in 10.0 mi ENE 6.9 mph - N/A   Overcast
8:38 AM 50.2 °F 47.8 °F 92% 30.15 in 10.0 mi ENE 5.8 mph - N/A   Overcast
8:55 AM 50.2 °F 48.2 °F 93% 30.15 in 10.0 mi ENE 6.9 mph - N/A   Overcast
9:15 AM 50.4 °F 48.0 °F 92% 30.14 in 10.0 mi East 10.4 mph - N/A   Overcast
9:16 AM 50.4 °F 48.0 °F 92% 30.14 in 10.0 mi East 8.1 mph - N/A   Overcast
9:35 AM 50.9 °F 48.2 °F 90% 30.14 in 10.0 mi ENE 8.1 mph - N/A   Overcast
9:36 AM 50.9 °F 48.2 °F 90% 30.14 in 10.0 mi ENE 9.2 mph - N/A   Overcast
9:55 AM 51.1 °F 48.4 °F 90% 30.14 in 10.0 mi ENE 9.2 mph - N/A   Overcast
9:59 AM 51.1 °F 48.2 °F 90% 30.14 in 10.0 mi ENE 8.1 mph - N/A   Overcast
10:18 AM 51.4 °F 48.2 °F 89% 30.15 in 10.0 mi East 10.4 mph - N/A   Overcast
10:35 AM 52.0 °F 48.6 °F 88% 30.15 in 10.0 mi East 11.5 mph - N/A   Overcast
10:55 AM 52.7 °F 48.6 °F 86% 30.15 in 10.0 mi East 9.2 mph - N/A   Overcast
10:56 AM 52.7 °F 48.6 °F 86% 30.15 in 10.0 mi East 9.2 mph - N/A   Overcast
11:15 AM 52.9 °F 48.6 °F 85% 30.15 in 10.0 mi East 10.4 mph - N/A   Overcast
11:16 AM 52.9 °F 48.6 °F 85% 30.15 in 10.0 mi East 9.2 mph - N/A   Overcast
11:39 AM 53.6 °F 49.1 °F 85% 30.14 in 10.0 mi East 9.2 mph - N/A   Overcast
11:57 AM 53.8 °F 49.3 °F 85% 30.14 in 10.0 mi East 10.4 mph - N/A   Overcast
12:16 PM 54.5 °F 49.6 °F 84% 30.14 in 10.0 mi East 9.2 mph - N/A   Overcast
12:35 PM 55.4 °F 49.8 °F 81% 30.14 in 10.0 mi East 11.5 mph - N/A   Overcast
12:36 PM 55.4 °F 49.6 °F 81% 30.14 in 10.0 mi East 11.5 mph - N/A   Overcast
12:55 PM 55.8 °F 50.7 °F 83% 30.14 in 10.0 mi ENE 9.2 mph - N/A   Overcast
12:56 PM 55.9 °F 50.9 °F 83% 30.14 in 10.0 mi ENE 9.2 mph - N/A   Overcast
1:15 PM 56.3 °F 50.4 °F 80% 30.14 in 10.0 mi East 11.5 mph - N/A   Overcast
1:19 PM 56.3 °F 50.4 °F 80% 30.14 in 10.0 mi East 9.2 mph - N/A   Overcast
1:37 PM 55.9 °F 50.7 °F 83% 30.14 in 10.0 mi East 6.9 mph - N/A   Overcast
1:55 PM 57.0 °F 50.9 °F 80% 30.14 in 10.0 mi East 9.2 mph - N/A   Overcast
2:15 PM 57.2 °F 50.9 °F 79% 30.12 in 10.0 mi East 9.2 mph - N/A   Overcast
2:35 PM 57.9 °F 51.4 °F 79% 30.12 in 10.0 mi ENE 11.5 mph - N/A   Overcast
2:36 PM 58.1 °F 51.4 °F 78% 30.12 in 10.0 mi ENE 10.4 mph - N/A   Overcast
2:59 PM 58.3 °F 50.9 °F 76% 30.12 in 10.0 mi East 9.2 mph - N/A   Overcast
3:17 PM 58.1 °F 51.1 °F 77% 30.12 in 10.0 mi East 11.5 mph - N/A   Overcast
3:35 PM 58.5 °F 51.4 °F 77% 30.12 in 10.0 mi ENE 10.4 mph - N/A   Overcast
3:55 PM 59.0 °F 51.3 °F 75% 30.12 in 10.0 mi East 11.5 mph - N/A   Overcast
3:56 PM 59.0 °F 51.1 °F 75% 30.12 in 10.0 mi East 11.5 mph - N/A   Overcast
4:15 PM 58.6 °F 50.5 °F 74% 30.11 in 10.0 mi ENE 11.5 mph - N/A   Overcast
4:16 PM 58.6 °F 50.5 °F 74% 30.11 in 10.0 mi ENE 10.4 mph - N/A   Overcast
4:38 PM 58.5 °F 50.7 °F 75% 30.11 in 10.0 mi East 11.5 mph - N/A   Overcast
4:56 PM 58.1 °F 50.2 °F 75% 30.11 in 10.0 mi East 10.4 mph - N/A   Overcast
5:15 PM 58.1 °F 50.9 °F 77% 30.11 in 10.0 mi ENE 11.5 mph - N/A   Overcast
5:16 PM 58.1 °F 50.9 °F 77% 30.11 in 10.0 mi ENE 11.5 mph - N/A   Overcast
5:35 PM 57.7 °F 51.3 °F 79% 30.12 in 10.0 mi ENE 8.1 mph - N/A   Overcast
5:36 PM 57.7 °F 51.3 °F 79% 30.12 in 10.0 mi ENE 8.1 mph - N/A   Overcast
5:55 PM 57.4 °F 50.9 °F 79% 30.12 in 10.0 mi ENE 10.4 mph - N/A   Overcast
5:56 PM 57.4 °F 50.9 °F 79% 30.12 in 10.0 mi ENE 10.4 mph - N/A   Overcast
6:15 PM 57.6 °F 51.3 °F 79% 30.12 in 10.0 mi East 10.4 mph - N/A   Overcast
6:37 PM 57.4 °F 51.8 °F 82% 30.11 in 7.0 mi East 8.1 mph - N/A   Overcast
6:55 PM 57.4 °F 52.0 °F 82% 30.10 in 10.0 mi East 9.2 mph - N/A   Overcast
7:15 PM 56.8 °F 52.0 °F 84% 30.10 in 10.0 mi East 8.1 mph - N/A   Overcast
7:16 PM 56.8 °F 52.0 °F 84% 30.10 in 10.0 mi East 8.1 mph - N/A   Overcast
7:35 PM 56.5 °F 51.8 °F 84% 30.11 in 10.0 mi East 8.1 mph - N/A   Overcast
7:36 PM 56.5 °F 51.8 °F 84% 30.11 in 10.0 mi East 8.1 mph - N/A   Overcast
7:55 PM 56.3 °F 51.8 °F 85% 30.11 in 10.0 mi East 6.9 mph - N/A   Overcast
7:59 PM 56.3 °F 51.8 °F 85% 30.11 in 10.0 mi East 8.1 mph - N/A   Overcast
8:17 PM 56.1 °F 51.8 °F 85% 30.11 in 10.0 mi East 6.9 mph - N/A   Overcast
8:35 PM 55.8 °F 52.0 °F 87% 30.11 in 10.0 mi East 5.8 mph - N/A   Overcast
8:55 PM 55.4 °F 52.0 °F 88% 30.11 in 10.0 mi East 6.9 mph - N/A   Overcast
8:56 PM 55.4 °F 52.0 °F 88% 30.11 in 10.0 mi East 8.1 mph - N/A   Overcast
9:15 PM 54.7 °F 51.6 °F 89% 30.11 in 10.0 mi East 5.8 mph - N/A   Mostly Cloudy
9:16 PM 54.5 °F 51.4 °F 89% 30.11 in 10.0 mi East 5.8 mph - N/A   Mostly Cloudy
9:38 PM 53.4 °F 51.3 °F 92% 30.11 in 10.0 mi East 5.8 mph - N/A   Clear
9:57 PM 54.0 °F 51.8 °F 92% 30.11 in 10.0 mi East 5.8 mph - N/A   Mostly Cloudy
10:17 PM 54.5 °F 52.0 °F 91% 30.11 in 10.0 mi East 5.8 mph - N/A   Overcast
10:36 PM 55.0 °F 52.2 °F 90% 30.11 in 10.0 mi East 6.9 mph - N/A   Overcast
10:55 PM 55.4 °F 52.3 °F 89% 30.12 in 10.0 mi East 5.8 mph - N/A   Overcast
10:56 PM 55.4 °F 52.3 °F 89% 30.12 in 10.0 mi East 5.8 mph - N/A   Overcast
11:15 PM 55.4 °F 52.3 °F 89% 30.12 in 10.0 mi East 6.9 mph - N/A   Overcast
11:19 PM 55.4 °F 52.7 °F 91% 30.12 in 10.0 mi East 5.8 mph - N/A   Overcast
11:37 PM 55.6 °F 52.7 °F 90% 30.12 in 10.0 mi ESE 6.9 mph - N/A   Overcast
11:56 PM 55.8 °F 52.9 °F 90% 30.12 in 10.0 mi ESE 8.1 mph - N/A   Overcast